, FL

(GMT )
Bonifay

Weather History for K1J0 - August, 2019

Change the Weather History Date:

Wednesday, August 28, 2019

  Actual Average (WUND) Record (WUND)
Temperature  
Mean Temperature 82 °F -  
Max Temperature 93 °F - - (-1)
Min Temperature 72 °F - - (-1)
Cooling Degree Days 18    
Growing Degree Days 32 (Base 50)    
Moisture  
Dew Point 73 °F    
Average Humidity 81    
Maximum Humidity 100    
Minimum Humidity 50    
Precipitation  
Precipitation 0.00 in - - ()
Sea Level Pressure  
Sea Level Pressure 29.86 in    
Wind  
Wind Speed 2 mph (WNW)    
Max Wind Speed 9 mph    
Max Gust Speed -    
Visibility 8 miles    
Events      
Averages and records for this station are not official NWS values.
T = Trace of Precipitation, MM = Missing Value Source: NWS Daily Summary

Daily Weather History Graph

Daily Weather History Graph

Search for Another Location

Airport or City:

Astronomy

Aug. 28, 2019 Rise Set
Actual Time 7:16 AM EDT 8:10 PM EDT
Civil Twilight 6:51 AM EDT 8:35 PM EDT
Nautical Twilight 6:22 AM EDT 9:04 PM EDT
Astronomical Twilight 5:52 AM EDT 9:34 PM EDT
Moon 5:00 AM EDT (8/28) 7:11 PM EDT (8/28)
Length of Visible Light 13h 43m
Length of Day
12h 54m
Waning Crescent, 5% of the Moon is Illuminated
Aug 28
Waning Crescent
Aug 30
New
Sep 5
First Quarter
Sep 14
Full
Sep 21
Last Quarter

Hourly Weather History & Observations

Time (EDT) Temp. Heat Index Dew Point Humidity Pressure Visibility Wind Dir Wind Speed Gust Speed Precip Events Conditions
12:20 AM 75.0 °F - 73.9 °F 96% 29.97 in 6.0 mi Calm Calm - N/A   Partly Cloudy
12:32 AM 75.0 °F - 73.9 °F 96% 29.97 in 6.0 mi Calm Calm - N/A   Mostly Cloudy
12:57 AM 75.0 °F - 73.9 °F 96% 29.84 in 1.8 mi SSW 3.5 mph - N/A   Overcast
1:40 AM 73.9 °F - 73.0 °F 97% 29.95 in 3.0 mi SW 4.6 mph - N/A   Overcast
1:48 AM 73.9 °F - 73.9 °F 100% 29.94 in 2.0 mi WSW 3.5 mph - N/A   Overcast
1:58 AM 75.0 °F - 73.9 °F 96% 29.81 in 1.5 mi SW 4.6 mph - N/A   Overcast
2:24 AM 75.0 °F - 73.9 °F 96% 29.93 in 2.5 mi Variable 3.5 mph - N/A   Overcast
2:28 AM 75.0 °F - 73.9 °F 96% 29.93 in 5.0 mi Variable 3.5 mph - N/A   Mostly Cloudy
2:58 AM 75.0 °F - 73.0 °F 94% 29.81 in 10.0 mi Calm Calm - N/A   Mostly Cloudy
3:14 AM 73.9 °F - 73.0 °F 97% 29.93 in 10.0 mi Calm Calm - N/A   Overcast
3:58 AM 73.0 °F - 72.0 °F 96% 29.81 in 10.0 mi Calm Calm - N/A   Clear
4:58 AM 73.0 °F - 71.1 °F 93% 29.82 in 10.0 mi Calm Calm - N/A   Clear
5:58 AM 72.0 °F - 70.0 °F 93% 29.83 in 10.0 mi NNW 3.5 mph - N/A   Clear
6:58 AM 72.0 °F - 69.1 °F 91% 29.85 in 10.0 mi Calm Calm - N/A   Clear
7:58 AM 73.0 °F - 70.0 °F 90% 29.86 in 10.0 mi Calm Calm - N/A   Clear
8:58 AM 75.9 °F - 71.1 °F 85% 29.86 in 10.0 mi Variable 4.6 mph - N/A   Clear
9:58 AM 80.1 °F 83.6 °F 71.1 °F 74% 29.88 in 10.0 mi NW 5.8 mph - N/A   Scattered Clouds
10:58 AM 84.9 °F 91.4 °F 73.0 °F 67% 29.87 in 10.0 mi Variable 3.5 mph - N/A   Partly Cloudy
11:58 AM 87.1 °F 95.4 °F 73.9 °F 65% 29.87 in 10.0 mi Variable 4.6 mph - N/A   Scattered Clouds
12:58 PM 88.0 °F 96.5 °F 73.9 °F 63% 29.85 in 10.0 mi Calm Calm - N/A   Partly Cloudy
1:58 PM 91.0 °F 100.4 °F 73.9 °F 57% 29.84 in 10.0 mi Variable 5.8 mph - N/A   Scattered Clouds
2:58 PM 91.9 °F 100.7 °F 73.0 °F 54% 29.83 in 10.0 mi Variable 5.8 mph - N/A   Mostly Cloudy
3:58 PM 93.0 °F 100.7 °F 72.0 °F 50% 29.81 in 10.0 mi NNW 8.1 mph - N/A   Partly Cloudy
4:58 PM 93.9 °F 103.4 °F 73.0 °F 51% 29.80 in 10.0 mi North 9.2 mph - N/A   Mostly Cloudy
5:58 PM 93.0 °F 100.7 °F 72.0 °F 50% 29.80 in 10.0 mi Variable 5.8 mph - N/A   Clear
6:58 PM 91.0 °F 96.6 °F 70.0 °F 50% 29.80 in 10.0 mi NNW 9.2 mph - N/A   Scattered Clouds
7:58 PM 86.0 °F 92.2 °F 72.0 °F 63% 29.81 in 10.0 mi NW 3.5 mph - N/A   Clear
8:58 PM 80.1 °F 85.1 °F 75.0 °F 85% 29.82 in 10.0 mi Calm Calm - N/A   Clear
9:58 PM 78.1 °F - 75.0 °F 90% 29.84 in 10.0 mi Calm Calm - N/A   Clear
11:58 PM 75.0 °F - 73.0 °F 94% 29.86 in 10.0 mi Calm Calm - N/A   Clear